Погода в Поливаново

Россия / Ульяновская область     53°36′48″N   47°22′08″E
темп.,
°C
ветер,
м/с
пор.,
м/с
влажн.,
%
обл.,
%
осадки,
мм/ч
давл.,
гПа
погр.,
м
22 июня, вт
вт2201:00+20св118144 0.0 102211
04:00+19ссз118248 0.0 102311
07:00+23с127229 0.0 102298
10:00+28всв115410 0.0 1022748
13:00+30зюз21460 0.0 10222001
16:00+30юз224317 0.0 10211654
19:00+29ссв115830 0.0 102168
22:00+24всв116469 0.0 102111
23 июня, ср
ср2301:00+23ссз116667 0.0 102111
04:00+20с11785 0.1 102111
07:00+23ссз12750 0.1 102195
10:00+28ссз12540 0.1 1021798
13:00+30зсз23442 0.0 10202338
16:00+31сз544413 0.0 10192470
19:00+25юв226813 0.7 1020217
22:00+20ссз11891 0.7 102011
24 июня, чт
чт2401:00+20с228846 0.0 102022
04:00+19сз11835 0.0 101911
07:00+22сз22755 0.0 1020133
10:00+27ссз22565 0.0 1019618
13:00+30с234570 0.0 10191935
16:00+31ссв33419 0.0 10182332
19:00+28с36610 0.0 1017282
22:00+22сз117954 0.2 101811
25 июня, пт
пт2501:00+21з22868 0.6 101714
04:00+19св61394100 3.8 1019407
07:00+20зюз2589100 1.6 1016115
10:00+21з2287100 2.1 101777
13:00+29сз3453100 0.0 10161334
16:00+30сз46516 0.0 10151980
19:00+27с5107053 0.9 1014371
22:00+20сз1169100 1.7 101411
26 июня, сб
сб2601:00+20з1172100 0.3 101413
04:00+20зсз3794100 2.8 1014160
07:00+20сз3892100 2.9 1013265
10:00+24ссз367887 3.1 1013337
13:00+30с455289 0.0 10121181
16:00+30ссв345292 0.0 10121521
19:00+28ссз24667 0.1 1011265
22:00+22ссз22822 0.4 101125